Year,Month,Day,Hour,Minute,Value (Times are PST for temperature in C)
2013,07,05,00,00,13.90
2013,07,05,00,01,13.80
2013,07,05,00,02,13.90
2013,07,05,00,03,13.90
2013,07,05,00,04,13.90
2013,07,05,00,05,13.80
2013,07,05,00,06,13.80
2013,07,05,00,07,13.80
2013,07,05,00,08,13.80
2013,07,05,00,09,13.80
2013,07,05,00,10,13.80
2013,07,05,00,11,13.80
2013,07,05,00,12,13.80
2013,07,05,00,13,13.80
2013,07,05,00,14,13.80
2013,07,05,00,15,13.80
2013,07,05,00,16,13.80
2013,07,05,00,17,13.80
2013,07,05,00,18,13.80
2013,07,05,00,19,13.80
2013,07,05,00,20,13.80
2013,07,05,00,21,13.80
2013,07,05,00,22,13.80
2013,07,05,00,23,13.80
2013,07,05,00,24,13.80
2013,07,05,00,25,13.80
2013,07,05,00,26,13.80
2013,07,05,00,27,13.80
2013,07,05,00,28,13.80
2013,07,05,00,29,13.80
2013,07,05,00,30,13.80
2013,07,05,00,31,13.80
2013,07,05,00,32,13.80
2013,07,05,00,33,13.80
2013,07,05,00,34,13.80
2013,07,05,00,35,13.80
2013,07,05,00,36,13.80
2013,07,05,00,37,13.80
2013,07,05,00,38,13.80
2013,07,05,00,39,13.80
2013,07,05,00,40,13.80
2013,07,05,00,41,13.80
2013,07,05,00,42,13.80
2013,07,05,00,43,13.80
2013,07,05,00,44,13.70
2013,07,05,00,45,13.70
2013,07,05,00,46,13.70
2013,07,05,00,47,13.70
2013,07,05,00,48,13.70
2013,07,05,00,49,13.70
2013,07,05,00,50,13.70
2013,07,05,00,51,13.70
2013,07,05,00,52,13.70
2013,07,05,00,53,13.70
2013,07,05,00,54,13.70
2013,07,05,00,55,13.70
2013,07,05,00,56,13.70
2013,07,05,00,57,13.70
2013,07,05,00,58,13.70
2013,07,05,00,59,13.70
2013,07,05,01,00,13.70
2013,07,05,01,01,13.70
2013,07,05,01,02,13.70
2013,07,05,01,03,13.70
2013,07,05,01,04,13.70
2013,07,05,01,05,13.70
2013,07,05,01,06,13.70
2013,07,05,01,07,13.70
2013,07,05,01,08,13.70
2013,07,05,01,09,13.70
2013,07,05,01,10,13.70
2013,07,05,01,11,13.70
2013,07,05,01,12,13.70
2013,07,05,01,13,13.70
2013,07,05,01,14,13.70
2013,07,05,01,15,13.60
2013,07,05,01,16,13.60
2013,07,05,01,17,13.60
2013,07,05,01,18,13.60
2013,07,05,01,19,13.60
2013,07,05,01,20,13.60
2013,07,05,01,21,13.60
2013,07,05,01,22,13.60
2013,07,05,01,23,13.60
2013,07,05,01,24,13.60
2013,07,05,01,25,13.60
2013,07,05,01,26,13.60
2013,07,05,01,27,13.60
2013,07,05,01,28,13.60
2013,07,05,01,29,13.60
2013,07,05,01,30,13.60
2013,07,05,01,31,13.60
2013,07,05,01,32,13.60
2013,07,05,01,33,13.60
2013,07,05,01,34,13.60
2013,07,05,01,35,13.50
2013,07,05,01,36,13.50
2013,07,05,01,37,13.50
2013,07,05,01,38,13.50
2013,07,05,01,39,13.50
2013,07,05,01,40,13.50
2013,07,05,01,41,13.50
2013,07,05,01,42,13.50
2013,07,05,01,43,13.50
2013,07,05,01,44,13.50
2013,07,05,01,45,13.50
2013,07,05,01,46,13.50
2013,07,05,01,47,13.50
2013,07,05,01,48,13.50
2013,07,05,01,49,13.50
2013,07,05,01,50,13.50
2013,07,05,01,51,13.50
2013,07,05,01,52,13.50
2013,07,05,01,53,13.50
2013,07,05,01,54,13.50
2013,07,05,01,55,13.50
2013,07,05,01,56,13.50
2013,07,05,01,57,13.50
2013,07,05,01,58,13.40
2013,07,05,01,59,13.40
2013,07,05,02,00,13.40
2013,07,05,02,01,13.40
2013,07,05,02,02,13.40
2013,07,05,02,03,13.40
2013,07,05,02,04,13.40
2013,07,05,02,05,13.40
2013,07,05,02,06,13.40
2013,07,05,02,07,13.40
2013,07,05,02,08,13.40
2013,07,05,02,09,13.40
2013,07,05,02,10,13.40
2013,07,05,02,11,13.40
2013,07,05,02,12,13.40
2013,07,05,02,13,13.40
2013,07,05,02,14,13.40
2013,07,05,02,15,13.40
2013,07,05,02,16,13.40
2013,07,05,02,17,13.40
2013,07,05,02,18,13.40
2013,07,05,02,19,13.40
2013,07,05,02,20,13.40
2013,07,05,02,21,13.40
2013,07,05,02,22,13.40
2013,07,05,02,23,13.40
2013,07,05,02,24,13.40
2013,07,05,02,25,13.40
2013,07,05,02,26,13.40
2013,07,05,02,27,13.40
2013,07,05,02,28,13.40
2013,07,05,02,29,13.40
2013,07,05,02,30,13.40
2013,07,05,02,31,13.40
2013,07,05,02,32,13.40
2013,07,05,02,33,13.30
2013,07,05,02,34,13.30
2013,07,05,02,35,13.30
2013,07,05,02,36,13.30
2013,07,05,02,37,13.30
2013,07,05,02,38,13.30
2013,07,05,02,39,13.30
2013,07,05,02,40,13.30
2013,07,05,02,41,13.30
2013,07,05,02,42,13.30
2013,07,05,02,43,13.20
2013,07,05,02,44,13.20
2013,07,05,02,45,13.20
2013,07,05,02,46,13.20
2013,07,05,02,47,13.20
2013,07,05,02,48,13.10
2013,07,05,02,49,13.10
2013,07,05,02,50,13.10
2013,07,05,02,51,13.10
2013,07,05,02,52,13.10
2013,07,05,02,53,13.10
2013,07,05,02,54,13.10
2013,07,05,02,55,13.00
2013,07,05,02,56,13.00
2013,07,05,02,57,13.00
2013,07,05,02,58,13.00
2013,07,05,02,59,12.90
2013,07,05,03,00,12.90
2013,07,05,03,01,12.90
2013,07,05,03,02,12.90
2013,07,05,03,03,12.90
2013,07,05,03,04,12.90
2013,07,05,03,05,12.80
2013,07,05,03,06,12.80
2013,07,05,03,07,12.80
2013,07,05,03,08,12.80
2013,07,05,03,09,12.80
2013,07,05,03,10,12.80
2013,07,05,03,11,12.80
2013,07,05,03,12,12.80
2013,07,05,03,13,12.70
2013,07,05,03,14,12.70
2013,07,05,03,15,12.70
2013,07,05,03,16,12.70
2013,07,05,03,17,12.70
2013,07,05,03,18,12.70
2013,07,05,03,19,12.70
2013,07,05,03,20,12.60
2013,07,05,03,21,12.60
2013,07,05,03,22,12.60
2013,07,05,03,23,12.60
2013,07,05,03,24,12.60
2013,07,05,03,25,12.50
2013,07,05,03,26,12.50
2013,07,05,03,27,12.50
2013,07,05,03,28,12.50
2013,07,05,03,29,12.40
2013,07,05,03,30,12.40
2013,07,05,03,31,12.40
2013,07,05,03,32,12.40
2013,07,05,03,33,12.40
2013,07,05,03,34,12.40
2013,07,05,03,35,12.40
2013,07,05,03,36,12.40
2013,07,05,03,37,12.40
2013,07,05,03,38,12.40
2013,07,05,03,39,12.30
2013,07,05,03,40,12.30
2013,07,05,03,41,12.30
2013,07,05,03,42,12.30
2013,07,05,03,43,12.30
2013,07,05,03,44,12.30
2013,07,05,03,45,12.30
2013,07,05,03,46,12.20
2013,07,05,03,47,12.20
2013,07,05,03,48,12.20
2013,07,05,03,49,12.20
2013,07,05,03,50,12.20
2013,07,05,03,51,12.20
2013,07,05,03,52,12.10
2013,07,05,03,53,12.10
2013,07,05,03,54,12.10
2013,07,05,03,55,12.10
2013,07,05,03,56,12.10
2013,07,05,03,57,12.10
2013,07,05,03,58,12.10
2013,07,05,03,59,12.10
2013,07,05,04,00,12.10
2013,07,05,04,01,12.10
2013,07,05,04,02,12.10
2013,07,05,04,03,12.00
2013,07,05,04,04,12.00
2013,07,05,04,05,12.00
2013,07,05,04,06,12.00
2013,07,05,04,07,12.00
2013,07,05,04,08,12.00
2013,07,05,04,09,11.90
2013,07,05,04,10,11.90
2013,07,05,04,11,11.90
2013,07,05,04,12,11.90
2013,07,05,04,13,11.90
2013,07,05,04,14,11.90
2013,07,05,04,15,11.90
2013,07,05,04,16,11.90
2013,07,05,04,17,11.90
2013,07,05,04,18,11.80
2013,07,05,04,19,11.80
2013,07,05,04,20,11.80
2013,07,05,04,21,11.80
2013,07,05,04,22,11.80
2013,07,05,04,23,11.80
2013,07,05,04,24,11.80
2013,07,05,04,25,11.80
2013,07,05,04,26,11.80
2013,07,05,04,27,11.80
2013,07,05,04,28,11.70
2013,07,05,04,29,11.70
2013,07,05,04,30,11.70
2013,07,05,04,31,11.70
2013,07,05,04,32,11.70
2013,07,05,04,33,11.70
2013,07,05,04,34,11.70
2013,07,05,04,35,11.70
2013,07,05,04,36,11.60
2013,07,05,04,37,11.60
2013,07,05,04,38,11.60
2013,07,05,04,39,11.60
2013,07,05,04,40,11.60
2013,07,05,04,41,11.60
2013,07,05,04,42,11.60
2013,07,05,04,43,11.60
2013,07,05,04,44,11.60
2013,07,05,04,45,11.60
2013,07,05,04,46,11.60
2013,07,05,04,47,11.60
2013,07,05,04,48,11.60
2013,07,05,04,49,11.60
2013,07,05,04,50,11.60
2013,07,05,04,51,11.60
2013,07,05,04,52,11.60
2013,07,05,04,53,11.60
2013,07,05,04,54,11.60
2013,07,05,04,55,11.60
2013,07,05,04,56,11.50
2013,07,05,04,57,11.50
2013,07,05,04,58,11.50
2013,07,05,04,59,11.50
2013,07,05,05,00,11.50
2013,07,05,05,01,11.40
2013,07,05,05,02,11.40
2013,07,05,05,03,11.40
2013,07,05,05,04,11.40
2013,07,05,05,05,11.40
2013,07,05,05,06,11.30
2013,07,05,05,07,11.30
2013,07,05,05,08,11.30
2013,07,05,05,09,11.30
2013,07,05,05,10,11.30
2013,07,05,05,11,11.30
2013,07,05,05,12,11.30
2013,07,05,05,13,11.30
2013,07,05,05,14,11.30
2013,07,05,05,15,11.30
2013,07,05,05,16,11.30
2013,07,05,05,17,11.30
2013,07,05,05,18,11.20
2013,07,05,05,19,11.20
2013,07,05,05,20,11.20
2013,07,05,05,21,11.20
2013,07,05,05,22,11.20
2013,07,05,05,23,11.20
2013,07,05,05,24,11.20
2013,07,05,05,25,11.20
2013,07,05,05,26,11.20
2013,07,05,05,27,11.20
2013,07,05,05,28,11.20
2013,07,05,05,29,11.20
2013,07,05,05,30,11.20
2013,07,05,05,31,11.20
2013,07,05,05,32,11.20
2013,07,05,05,33,11.20
2013,07,05,05,34,11.20
2013,07,05,05,35,11.20
2013,07,05,05,36,11.20
2013,07,05,05,37,11.20
2013,07,05,05,38,11.20
2013,07,05,05,39,11.20
2013,07,05,05,40,11.20
2013,07,05,05,41,11.20
2013,07,05,05,42,11.20
2013,07,05,05,43,11.20
2013,07,05,05,44,11.20
2013,07,05,05,45,11.20
2013,07,05,05,46,11.20
2013,07,05,05,47,11.20
2013,07,05,05,48,11.20
2013,07,05,05,49,11.20
2013,07,05,05,50,11.20
2013,07,05,05,51,11.20
2013,07,05,05,52,11.20
2013,07,05,05,53,11.20
2013,07,05,05,54,11.20
2013,07,05,05,55,11.20
2013,07,05,05,56,11.20
2013,07,05,05,57,11.20
2013,07,05,05,58,11.20
2013,07,05,05,59,11.20
2013,07,05,06,00,11.20
2013,07,05,06,01,11.20
2013,07,05,06,02,11.20
2013,07,05,06,03,11.20
2013,07,05,06,04,11.20
2013,07,05,06,05,11.20
2013,07,05,06,06,11.20
2013,07,05,06,07,11.20
2013,07,05,06,08,11.20
2013,07,05,06,09,11.30
2013,07,05,06,10,11.30
2013,07,05,06,11,11.30
2013,07,05,06,12,11.30
2013,07,05,06,13,11.30
2013,07,05,06,14,11.30
2013,07,05,06,15,11.40
2013,07,05,06,16,11.40
2013,07,05,06,17,11.40
2013,07,05,06,18,11.40
2013,07,05,06,19,11.40
2013,07,05,06,20,11.50
2013,07,05,06,21,11.50
2013,07,05,06,22,11.50
2013,07,05,06,23,11.60
2013,07,05,06,24,11.60
2013,07,05,06,25,11.60
2013,07,05,06,26,11.70
2013,07,05,06,27,11.70
2013,07,05,06,28,11.70
2013,07,05,06,29,11.80
2013,07,05,06,30,11.90
2013,07,05,06,31,11.90
2013,07,05,06,32,11.90
2013,07,05,06,33,12.00
2013,07,05,06,34,12.00
2013,07,05,06,35,12.10
2013,07,05,06,36,12.10
2013,07,05,06,37,12.20
2013,07,05,06,38,12.30
2013,07,05,06,39,12.30
2013,07,05,06,40,12.40
2013,07,05,06,41,12.40
2013,07,05,06,42,12.50
2013,07,05,06,43,12.60
2013,07,05,06,44,12.60
2013,07,05,06,45,12.70
2013,07,05,06,46,12.70
2013,07,05,06,47,12.70
2013,07,05,06,48,12.70
2013,07,05,06,49,12.80
2013,07,05,06,50,12.80
2013,07,05,06,51,12.90
2013,07,05,06,52,12.90
2013,07,05,06,53,12.90
2013,07,05,06,54,13.00
2013,07,05,06,55,13.00
2013,07,05,06,56,13.00
2013,07,05,06,57,13.10
2013,07,05,06,58,13.10
2013,07,05,06,59,13.20
2013,07,05,07,00,13.20
2013,07,05,07,01,13.20
2013,07,05,07,02,13.30
2013,07,05,07,03,13.30
2013,07,05,07,04,13.30
2013,07,05,07,05,13.30
2013,07,05,07,06,13.40
2013,07,05,07,07,13.40
2013,07,05,07,08,13.40
2013,07,05,07,09,13.40
2013,07,05,07,10,13.40
2013,07,05,07,11,13.50
2013,07,05,07,12,13.50
2013,07,05,07,13,13.60
2013,07,05,07,14,13.60
2013,07,05,07,15,13.60
2013,07,05,07,16,13.60
2013,07,05,07,17,13.70
2013,07,05,07,18,13.70
2013,07,05,07,19,13.80
2013,07,05,07,20,13.80
2013,07,05,07,21,13.80
2013,07,05,07,22,13.80
2013,07,05,07,23,13.90
2013,07,05,07,24,13.90
2013,07,05,07,25,13.90
2013,07,05,07,26,14.00
2013,07,05,07,27,14.00
2013,07,05,07,28,14.10
2013,07,05,07,29,14.10
2013,07,05,07,30,14.10
2013,07,05,07,31,14.20
2013,07,05,07,32,14.20
2013,07,05,07,33,14.20
2013,07,05,07,34,14.20
2013,07,05,07,35,14.30
2013,07,05,07,36,14.30
2013,07,05,07,37,14.30
2013,07,05,07,38,14.30
2013,07,05,07,39,14.40
2013,07,05,07,40,14.40
2013,07,05,07,41,14.40
2013,07,05,07,42,14.40
2013,07,05,07,43,14.50
2013,07,05,07,44,14.50
2013,07,05,07,45,14.60
2013,07,05,07,46,14.60
2013,07,05,07,47,14.60
2013,07,05,07,48,14.70
2013,07,05,07,49,14.70
2013,07,05,07,50,14.70
2013,07,05,07,51,14.80
2013,07,05,07,52,14.80
2013,07,05,07,53,14.80
2013,07,05,07,54,14.90
2013,07,05,07,55,14.90
2013,07,05,07,56,15.00
2013,07,05,07,57,15.10
2013,07,05,07,58,15.10
2013,07,05,07,59,15.10
2013,07,05,08,00,15.10
2013,07,05,08,01,15.20
2013,07,05,08,02,15.20
2013,07,05,08,03,15.20
2013,07,05,08,04,15.20
2013,07,05,08,05,15.20
2013,07,05,08,06,15.20
2013,07,05,08,07,15.20
2013,07,05,08,08,15.30
2013,07,05,08,09,15.30
2013,07,05,08,10,15.30
2013,07,05,08,11,15.30
2013,07,05,08,12,15.30
2013,07,05,08,13,15.30
2013,07,05,08,14,15.40
2013,07,05,08,15,15.40
2013,07,05,08,16,15.40
2013,07,05,08,17,15.40
2013,07,05,08,18,15.40
2013,07,05,08,19,15.40
2013,07,05,08,20,15.30
2013,07,05,08,21,15.30
2013,07,05,08,22,15.30
2013,07,05,08,23,15.30
2013,07,05,08,24,15.30
2013,07,05,08,25,15.30
2013,07,05,08,26,15.30
2013,07,05,08,27,15.30
2013,07,05,08,28,15.30
2013,07,05,08,29,15.30
2013,07,05,08,30,15.30
2013,07,05,08,31,15.30
2013,07,05,08,32,15.30
2013,07,05,08,33,15.30
2013,07,05,08,34,15.30
2013,07,05,08,35,15.30
2013,07,05,08,36,15.30
2013,07,05,08,37,15.30
2013,07,05,08,38,15.30
2013,07,05,08,39,15.30
2013,07,05,08,40,15.40
2013,07,05,08,41,15.40
2013,07,05,08,42,15.40
2013,07,05,08,43,15.40
2013,07,05,08,44,15.40
2013,07,05,08,45,15.40
2013,07,05,08,46,15.40
2013,07,05,08,47,15.40
2013,07,05,08,48,15.40
2013,07,05,08,49,15.40
2013,07,05,08,50,15.40
2013,07,05,08,51,15.40
2013,07,05,08,52,15.40
2013,07,05,08,53,15.40
2013,07,05,08,54,15.40
2013,07,05,08,55,15.40
2013,07,05,08,56,15.50
2013,07,05,08,57,15.50
2013,07,05,08,58,15.60
2013,07,05,08,59,15.60
2013,07,05,09,00,15.60
2013,07,05,09,01,15.70
2013,07,05,09,02,15.70
2013,07,05,09,03,15.70
2013,07,05,09,04,15.70
2013,07,05,09,05,15.70
2013,07,05,09,06,15.80
2013,07,05,09,07,15.80
2013,07,05,09,08,15.80
2013,07,05,09,09,15.80
2013,07,05,09,10,15.80
2013,07,05,09,11,15.80
2013,07,05,09,12,15.80
2013,07,05,09,13,15.80
2013,07,05,09,14,15.80
2013,07,05,09,15,15.80
2013,07,05,09,16,15.80
2013,07,05,09,17,15.80
2013,07,05,09,18,15.80
2013,07,05,09,19,15.80
2013,07,05,09,20,15.80
2013,07,05,09,21,15.80
2013,07,05,09,22,15.80
2013,07,05,09,23,15.90
2013,07,05,09,24,15.90
2013,07,05,09,25,15.90
2013,07,05,09,26,15.80
2013,07,05,09,27,15.80
2013,07,05,09,28,15.80
2013,07,05,09,29,15.80
2013,07,05,09,30,15.90
2013,07,05,09,31,15.90
2013,07,05,09,32,15.90
2013,07,05,09,33,15.90
2013,07,05,09,34,15.80
2013,07,05,09,35,15.80
2013,07,05,09,36,15.80
2013,07,05,09,37,15.80
2013,07,05,09,38,15.80
2013,07,05,09,39,15.80
2013,07,05,09,40,15.80
2013,07,05,09,41,15.80
2013,07,05,09,42,15.80
2013,07,05,09,43,15.90
2013,07,05,09,44,15.90
2013,07,05,09,45,15.90
2013,07,05,09,46,15.90
2013,07,05,09,47,15.90
2013,07,05,09,48,15.90
2013,07,05,09,49,16.00
2013,07,05,09,50,16.00
2013,07,05,09,51,16.10
2013,07,05,09,52,16.10
2013,07,05,09,53,16.10
2013,07,05,09,54,16.20
2013,07,05,09,55,16.30
2013,07,05,09,56,16.30
2013,07,05,09,57,16.30
2013,07,05,09,58,16.40
2013,07,05,09,59,16.50
2013,07,05,10,00,16.50
2013,07,05,10,01,16.60
2013,07,05,10,02,16.60
2013,07,05,10,03,16.70
2013,07,05,10,04,16.80
2013,07,05,10,05,16.80
2013,07,05,10,06,16.80
2013,07,05,10,07,16.80
2013,07,05,10,08,16.80
2013,07,05,10,09,16.80
2013,07,05,10,10,16.80
2013,07,05,10,11,16.80
2013,07,05,10,12,16.80
2013,07,05,10,13,16.80
2013,07,05,10,14,16.90
2013,07,05,10,15,16.90
2013,07,05,10,16,16.90
2013,07,05,10,17,17.00
2013,07,05,10,18,17.00
2013,07,05,10,19,17.00
2013,07,05,10,20,17.10
2013,07,05,10,21,17.10
2013,07,05,10,22,17.10
2013,07,05,10,23,17.10
2013,07,05,10,24,17.10
2013,07,05,10,25,17.10
2013,07,05,10,26,17.10
2013,07,05,10,27,17.10
2013,07,05,10,28,17.10
2013,07,05,10,29,17.10
2013,07,05,10,30,17.10
2013,07,05,10,31,17.10
2013,07,05,10,32,17.20
2013,07,05,10,33,17.20
2013,07,05,10,34,17.20
2013,07,05,10,35,17.30
2013,07,05,10,36,17.30
2013,07,05,10,37,17.40
2013,07,05,10,38,17.40
2013,07,05,10,39,17.40
2013,07,05,10,40,17.40
2013,07,05,10,41,17.50
2013,07,05,10,42,17.50
2013,07,05,10,43,17.60
2013,07,05,10,44,17.60
2013,07,05,10,45,17.60
2013,07,05,10,46,17.60
2013,07,05,10,47,17.60
2013,07,05,10,48,17.60
2013,07,05,10,49,17.60
2013,07,05,10,50,17.70
2013,07,05,10,51,17.70
2013,07,05,10,52,17.70
2013,07,05,10,53,17.70
2013,07,05,10,54,17.60
2013,07,05,10,55,17.60
2013,07,05,10,56,17.60
2013,07,05,10,57,17.60
2013,07,05,10,58,17.60
2013,07,05,10,59,17.50
2013,07,05,11,00,17.50
2013,07,05,11,01,17.40
2013,07,05,11,02,17.40
2013,07,05,11,03,17.40
2013,07,05,11,04,17.40
2013,07,05,11,05,17.40
2013,07,05,11,06,17.40
2013,07,05,11,07,17.40
2013,07,05,11,08,17.40
2013,07,05,11,09,17.40
2013,07,05,11,10,17.40
2013,07,05,11,11,17.40
2013,07,05,11,12,17.40
2013,07,05,11,13,17.40
2013,07,05,11,14,17.40
2013,07,05,11,15,17.40
2013,07,05,11,16,17.50
2013,07,05,11,17,17.50
2013,07,05,11,18,17.60
2013,07,05,11,19,17.60
2013,07,05,11,20,17.70
2013,07,05,11,21,17.70
2013,07,05,11,22,17.70
2013,07,05,11,23,17.70
2013,07,05,11,24,17.70
2013,07,05,11,25,17.80
2013,07,05,11,26,17.80
2013,07,05,11,27,17.80
2013,07,05,11,28,17.90
2013,07,05,11,29,17.90
2013,07,05,11,30,17.90
2013,07,05,11,31,17.90
2013,07,05,11,32,17.90
2013,07,05,11,33,17.90
2013,07,05,11,34,17.90
2013,07,05,11,35,17.90
2013,07,05,11,36,18.00
2013,07,05,11,37,18.00
2013,07,05,11,38,18.00
2013,07,05,11,39,18.00
2013,07,05,11,40,18.10
2013,07,05,11,41,18.10
2013,07,05,11,42,18.10
2013,07,05,11,43,18.20
2013,07,05,11,44,18.20
2013,07,05,11,45,18.20
2013,07,05,11,46,18.20
2013,07,05,11,47,18.20
2013,07,05,11,48,18.20
2013,07,05,11,49,18.20
2013,07,05,11,50,18.20
2013,07,05,11,51,18.20
2013,07,05,11,52,18.20
2013,07,05,11,53,18.20
2013,07,05,11,54,18.20
2013,07,05,11,55,18.20
2013,07,05,11,56,18.20
2013,07,05,11,57,18.20
2013,07,05,11,58,18.20
2013,07,05,11,59,18.20
2013,07,05,12,00,18.20
2013,07,05,12,01,18.20
2013,07,05,12,02,18.20
2013,07,05,12,03,18.20
2013,07,05,12,04,18.20
2013,07,05,12,05,18.20
2013,07,05,12,06,18.10
2013,07,05,12,07,18.10
2013,07,05,12,08,18.10
2013,07,05,12,09,18.10
2013,07,05,12,10,18.10
2013,07,05,12,11,18.10
2013,07,05,12,12,18.00
2013,07,05,12,13,18.00
2013,07,05,12,14,17.90
2013,07,05,12,15,17.90
2013,07,05,12,16,17.90
2013,07,05,12,17,17.90
2013,07,05,12,18,17.90
2013,07,05,12,19,17.80
2013,07,05,12,20,17.80
2013,07,05,12,21,17.80
2013,07,05,12,22,17.80
2013,07,05,12,23,17.70
2013,07,05,12,24,17.70
2013,07,05,12,25,17.70
2013,07,05,12,26,17.70
2013,07,05,12,27,17.70
2013,07,05,12,28,17.70
2013,07,05,12,29,17.70
2013,07,05,12,30,17.80
2013,07,05,12,31,17.80
2013,07,05,12,32,17.80
2013,07,05,12,33,17.80
2013,07,05,12,34,17.80
2013,07,05,12,35,17.90
2013,07,05,12,36,17.90
2013,07,05,12,37,17.90
2013,07,05,12,38,17.90
2013,07,05,12,39,18.00
2013,07,05,12,40,18.00
2013,07,05,12,41,18.10
2013,07,05,12,42,18.10
2013,07,05,12,43,18.20
2013,07,05,12,44,18.20
2013,07,05,12,45,18.30
2013,07,05,12,46,18.30
2013,07,05,12,47,18.30
2013,07,05,12,48,18.30
2013,07,05,12,49,18.40
2013,07,05,12,50,18.40
2013,07,05,12,51,18.40
2013,07,05,12,52,18.50
2013,07,05,12,53,18.50
2013,07,05,12,54,18.60
2013,07,05,12,55,18.60
2013,07,05,12,56,18.70
2013,07,05,12,57,18.70
2013,07,05,12,58,18.70
2013,07,05,12,59,18.60
2013,07,05,13,00,18.70
2013,07,05,13,01,18.70
2013,07,05,13,02,18.60
2013,07,05,13,03,18.70
2013,07,05,13,04,18.70
2013,07,05,13,05,18.70
2013,07,05,13,06,18.70
2013,07,05,13,07,18.70
2013,07,05,13,08,18.70
2013,07,05,13,09,18.80
2013,07,05,13,10,18.80
2013,07,05,13,11,18.80
2013,07,05,13,12,18.90
2013,07,05,13,13,18.90
2013,07,05,13,14,18.90
2013,07,05,13,15,18.90
2013,07,05,13,16,18.90
2013,07,05,13,17,18.90
2013,07,05,13,18,18.90
2013,07,05,13,19,18.90
2013,07,05,13,20,18.90
2013,07,05,13,21,18.90
2013,07,05,13,22,18.80
2013,07,05,13,23,18.80
2013,07,05,13,24,18.90
2013,07,05,13,25,18.90
2013,07,05,13,26,18.90
2013,07,05,13,27,18.80
2013,07,05,13,28,18.80
2013,07,05,13,29,18.70
2013,07,05,13,30,18.60
2013,07,05,13,31,18.60
2013,07,05,13,32,18.50
2013,07,05,13,33,18.50
2013,07,05,13,34,18.50
2013,07,05,13,35,18.60
2013,07,05,13,36,18.60
2013,07,05,13,37,18.60
2013,07,05,13,38,18.50
2013,07,05,13,39,18.50
2013,07,05,13,40,18.40
2013,07,05,13,41,18.40
2013,07,05,13,42,18.40
2013,07,05,13,43,18.40
2013,07,05,13,44,18.40
2013,07,05,13,45,18.40
2013,07,05,13,46,18.40
2013,07,05,13,47,18.40
2013,07,05,13,48,18.40
2013,07,05,13,49,18.40
2013,07,05,13,50,18.40
2013,07,05,13,51,18.50
2013,07,05,13,52,18.50
2013,07,05,13,53,18.50
2013,07,05,13,54,18.40
2013,07,05,13,55,18.40
2013,07,05,13,56,18.40
2013,07,05,13,57,18.40
2013,07,05,13,58,18.40
2013,07,05,13,59,18.50
2013,07,05,14,00,18.50
2013,07,05,14,01,18.60
2013,07,05,14,02,18.60
2013,07,05,14,03,18.60
2013,07,05,14,04,18.60
2013,07,05,14,05,18.60
2013,07,05,14,06,18.70
2013,07,05,14,07,18.70
2013,07,05,14,08,18.70
2013,07,05,14,09,18.80
2013,07,05,14,10,18.80
2013,07,05,14,11,18.90
2013,07,05,14,12,18.90
2013,07,05,14,13,18.90
2013,07,05,14,14,19.00
2013,07,05,14,15,19.00
2013,07,05,14,16,19.10
2013,07,05,14,17,19.10
2013,07,05,14,18,19.20
2013,07,05,14,19,19.30
2013,07,05,14,20,19.30
2013,07,05,14,21,19.40
2013,07,05,14,22,19.40
2013,07,05,14,23,19.50
2013,07,05,14,24,19.50
2013,07,05,14,25,19.50
2013,07,05,14,26,19.50
2013,07,05,14,27,19.50
2013,07,05,14,28,19.40
2013,07,05,14,29,19.40
2013,07,05,14,30,19.40
2013,07,05,14,31,19.40
2013,07,05,14,32,19.30
2013,07,05,14,33,19.30
2013,07,05,14,34,19.30
2013,07,05,14,35,19.40
2013,07,05,14,36,19.40
2013,07,05,14,37,19.40
2013,07,05,14,38,19.50
2013,07,05,14,39,19.50
2013,07,05,14,40,19.50
2013,07,05,14,41,19.50
2013,07,05,14,42,19.50
2013,07,05,14,43,19.60
2013,07,05,14,44,19.60
2013,07,05,14,45,19.60
2013,07,05,14,46,19.70
2013,07,05,14,47,19.70
2013,07,05,14,48,19.70
2013,07,05,14,49,19.70
2013,07,05,14,50,19.70
2013,07,05,14,51,19.70
2013,07,05,14,52,19.70
2013,07,05,14,53,19.70
2013,07,05,14,54,19.70
2013,07,05,14,55,19.70
2013,07,05,14,56,19.70
2013,07,05,14,57,19.70
2013,07,05,14,58,19.70
2013,07,05,14,59,19.60
2013,07,05,15,00,19.60
2013,07,05,15,01,19.60
2013,07,05,15,02,19.70
2013,07,05,15,03,19.70
2013,07,05,15,04,19.70
2013,07,05,15,05,19.70
2013,07,05,15,06,19.70
2013,07,05,15,07,19.70
2013,07,05,15,08,19.70
2013,07,05,15,09,19.70
2013,07,05,15,10,19.70
2013,07,05,15,11,19.80
2013,07,05,15,12,19.80
2013,07,05,15,13,19.90
2013,07,05,15,14,19.90
2013,07,05,15,15,20.00
2013,07,05,15,16,20.10
2013,07,05,15,17,20.10
2013,07,05,15,18,20.10
2013,07,05,15,19,20.10
2013,07,05,15,20,20.10
2013,07,05,15,21,20.00
2013,07,05,15,22,20.00
2013,07,05,15,23,20.00
2013,07,05,15,24,20.00
2013,07,05,15,25,20.00
2013,07,05,15,26,20.10
2013,07,05,15,27,20.10
2013,07,05,15,28,20.10
2013,07,05,15,29,20.20
2013,07,05,15,30,20.20
2013,07,05,15,31,20.10
2013,07,05,15,32,20.20
2013,07,05,15,33,20.20
2013,07,05,15,34,20.20
2013,07,05,15,35,20.20
2013,07,05,15,36,20.30
2013,07,05,15,37,20.30
2013,07,05,15,38,20.40
2013,07,05,15,39,20.40
2013,07,05,15,40,20.40
2013,07,05,15,41,20.40
2013,07,05,15,42,20.40
2013,07,05,15,43,20.40
2013,07,05,15,44,20.40
2013,07,05,15,45,20.30
2013,07,05,15,46,20.30
2013,07,05,15,47,20.30
2013,07,05,15,48,20.20
2013,07,05,15,49,20.20
2013,07,05,15,50,20.20
2013,07,05,15,51,20.20
2013,07,05,15,52,20.20
2013,07,05,15,53,20.20
2013,07,05,15,54,20.20
2013,07,05,15,55,20.20
2013,07,05,15,56,20.20
2013,07,05,15,57,20.20
2013,07,05,15,58,20.20
2013,07,05,15,59,20.20
2013,07,05,16,00,20.20
2013,07,05,16,01,20.30
2013,07,05,16,02,20.30
2013,07,05,16,03,20.30
2013,07,05,16,04,20.40
2013,07,05,16,05,20.40
2013,07,05,16,06,20.40
2013,07,05,16,07,20.50
2013,07,05,16,08,20.50
2013,07,05,16,09,20.50
2013,07,05,16,10,20.60
2013,07,05,16,11,20.60
2013,07,05,16,12,20.60
2013,07,05,16,13,20.60
2013,07,05,16,14,20.60
2013,07,05,16,15,20.60
2013,07,05,16,16,20.70
2013,07,05,16,17,20.70
2013,07,05,16,18,20.80
2013,07,05,16,19,20.80
2013,07,05,16,20,20.90
2013,07,05,16,21,20.90
2013,07,05,16,22,20.90
2013,07,05,16,23,21.00
2013,07,05,16,24,21.00
2013,07,05,16,25,21.10
2013,07,05,16,26,21.10
2013,07,05,16,27,21.10
2013,07,05,16,28,21.00
2013,07,05,16,29,21.00
2013,07,05,16,30,21.00
2013,07,05,16,31,21.00
2013,07,05,16,32,21.00
2013,07,05,16,33,21.10
2013,07,05,16,34,21.10
2013,07,05,16,35,21.10
2013,07,05,16,36,21.00
2013,07,05,16,37,20.90
2013,07,05,16,38,20.80
2013,07,05,16,39,20.70
2013,07,05,16,40,20.70
2013,07,05,16,41,20.60
2013,07,05,16,42,20.50
2013,07,05,16,43,20.40
2013,07,05,16,44,20.40
2013,07,05,16,45,20.30
2013,07,05,16,46,20.30
2013,07,05,16,47,20.20
2013,07,05,16,48,20.10
2013,07,05,16,49,19.90
2013,07,05,16,50,19.80
2013,07,05,16,51,19.80
2013,07,05,16,52,19.70
2013,07,05,16,53,19.70
2013,07,05,16,54,19.70
2013,07,05,16,55,19.70
2013,07,05,16,56,19.80
2013,07,05,16,57,19.80
2013,07,05,16,58,19.90
2013,07,05,16,59,20.00
2013,07,05,17,00,20.00
2013,07,05,17,01,20.10
2013,07,05,17,02,20.20
2013,07,05,17,03,20.20
2013,07,05,17,04,20.30
2013,07,05,17,05,20.40
2013,07,05,17,06,20.50
2013,07,05,17,07,20.50
2013,07,05,17,08,20.60
2013,07,05,17,09,20.60
2013,07,05,17,10,20.70
2013,07,05,17,11,20.70
2013,07,05,17,12,20.60
2013,07,05,17,13,20.60
2013,07,05,17,14,20.60
2013,07,05,17,15,20.50
2013,07,05,17,16,20.50
2013,07,05,17,17,20.40
2013,07,05,17,18,20.30
2013,07,05,17,19,20.20